Regional Weather Roundup
Issued by NWS

Home | Current Version | Previous Version | Graphics & Text | Print | Product List | Glossary On
Versions: 1 2 3 4 5 6 7 8 9 10 11 12 13 14 15 16 17 18 19 20 21 22 23 24 25 26 27 28 29 30 31 32 33 34 35 36 37 38 39 40 41 42 43 44 45 46 47 48 49 50
000
ASUS43 KDTX 170610
RWRMI
MICHIGAN HOURLY REGIONAL WEATHER ROUNDUP
NATIONAL WEATHER SERVICE DETROIT/PONTIAC MI
ISSUED BY NATIONAL WEATHER SERVICE GRAND RAPIDS MI
200 AM EDT THU AUG 17 2017

NOTE: "FAIR" INDICATES FEW OR NO CLOUDS BELOW 12,000 FEET WITH NO
SIGNIFICANT WEATHER AND/OR OBSTRUCTION TO VISIBILITY.

MIZ047>049-052>055-059>063-066>070-074>076-081>083-170700-
SOUTHEAST LOWER MICHIGAN

CITY           SKY/WX    TMP DP  RH WIND       PRES   REMARKS
ADRIAN         PTCLDY    71  57  61 SE5       29.95F
6HR MIN TEMP:  70; 6HR MAX TEMP:  77;

ALMA           PTCLDY    70  58  65 E9        29.93F
ANN ARBOR      PTCLDY    70  62  76 E6        29.96F
BAD AXE        CLOUDY    67  63  85 SE5       29.99F
DETROIT CITY   CLOUDY    72  60  66 SE7       29.98F
6HR MIN TEMP:  71; 6HR MAX TEMP:  77;

DETROIT        MOCLDY    71  62  73 E5        29.97F
6HR MIN TEMP:  71; 6HR MAX TEMP:  78;

FLINT          CLOUDY    70  56  61 SE8       29.96F
6HR MIN TEMP:  68; 6HR MAX TEMP:  77;

GROSSE ILE     PTCLDY    72  62  70 E6        29.96S
6HR MIN TEMP:  71; 6HR MAX TEMP:  76;

HILLSDALE      CLOUDY    70  59  68 E8        29.94F
HOWELL         PTCLDY    70  57  62 SE10      29.96F
6HR MIN TEMP:  70; 6HR MAX TEMP:  79;


CITY           SKY/WX    TMP DP  RH WIND       PRES   REMARKS
JACKSON        CLOUDY    72  61  68 E8        29.94F
6HR MIN TEMP:  72; 6HR MAX TEMP:  80;

LANSING        CLOUDY    71  58  63 SE14      29.94F
6HR MIN TEMP:  71; 6HR MAX TEMP:  80;

MASON          CLOUDY    72  61  68 SE12      29.94F
MONROE         PTCLDY    75  64  70 SE8       29.95F
6HR MIN TEMP:  73; 6HR MAX TEMP:  75;

MT. CLEMENS    MOCLDY    70  66  86 E6        29.97F
6HR MIN TEMP:  68; 6HR MAX TEMP:  75;

PONTIAC        CLOUDY    71  59  65 SE7       29.97F
6HR MIN TEMP:  71; 6HR MAX TEMP:  77;

PORT HOPE        N/A     71  66  84 SE10      29.98F
6HR MIN TEMP:  70; 6HR MAX TEMP:  72;

PORT HURON     PTCLDY    68  61  77 SE3       30.00S
TRI CITIES     CLOUDY    69  63  81 SE8       29.95F
6HR MIN TEMP:  68; 6HR MAX TEMP:  76;

YPSILANTI      PTCLDY    70  62  76 E6        29.97F
6HR MIN TEMP:  70; 6HR MAX TEMP:  79;

$$
MIZ043>046-050>051-056>058-064>065-071>073-077>080-170700-
SOUTHWEST LOWER MICHIGAN

CITY           SKY/WX    TMP DP  RH WIND       PRES   REMARKS
BIG RAPIDS     CLOUDY    69  62  78 E6        29.90F
6HR MIN TEMP:  69; 6HR MAX TEMP:  77;

COLDWATER      CLOUDY    72  62  71 SE9       29.92F
6HR MIN TEMP:  72; 6HR MAX TEMP:  81;

MARSHALL       CLOUDY    72  61  67 SE7       29.92F
6HR MIN TEMP:  72; 6HR MAX TEMP:  81;

MOUNT PLEASANT PTCLDY    72  61  68 SE5       29.93S
6HR MIN TEMP:  71; 6HR MAX TEMP:  78;

STURGIS        MOCLDY    73  66  79 SE10      29.90F
6HR MIN TEMP:  73; 6HR MAX TEMP:  82;

$$
MIZ016>042-170700-
NORTHERN LOWER MICHIGAN

CITY           SKY/WX    TMP DP  RH WIND       PRES   REMARKS
ALPENA         PTCLDY    66  63  90 SE8       29.99F
6HR MIN TEMP:  62; 6HR MAX TEMP:  67;

BEAVER ISLAND  PTCLDY    68  62  79 E9        29.90F
6HR MIN TEMP:  67; 6HR MAX TEMP:  69;

BELLAIRE       CLOUDY    71  58  64 SE10      29.90F
6HR MIN TEMP:  69; 6HR MAX TEMP:  78;

CADILLAC       CLOUDY    69  61  76 SE7       29.92F
CHARLEVOIX     PTCLDY    69  59  69 E10       29.93F
6HR MIN TEMP:  69; 6HR MAX TEMP:  76;

GAYLORD        CLOUDY    64  55  72 SE10      29.96F
6HR MIN TEMP:  63; 6HR MAX TEMP:  72;

HOUGHTON LAKE  CLOUDY    67  59  75 SE10      29.96F
6HR MIN TEMP:  64; 6HR MAX TEMP:  73;

OSCODA         PTCLDY    69  62  79 S5        29.98S
6HR MIN TEMP:  68; 6HR MAX TEMP:  69;

PELLSTON       MOCLDY    66  59  78 SE7       29.95F
6HR MIN TEMP:  66; 6HR MAX TEMP:  73;

TRAVERSE CITY  CLOUDY    72  60  66 SE9G17    29.86F
6HR MIN TEMP:  72; 6HR MAX TEMP:  78;

LUDINGTON      LGT RAIN  72  65  80 SE7       29.84S
6HR MIN TEMP:  68; 6HR MAX TEMP:  73;

$$
MIZ007>008-015-170700-
EASTERN UPPER MICHIGAN

CITY           SKY/WX    TMP DP  RH WIND       PRES   REMARKS
MACKINAC ISLAN MOCLDY    65  62  91 E13       29.95F
6HR MIN TEMP:  65; 6HR MAX TEMP:  66;

NEWBERRY       CLOUDY    62  61  97 E9        29.92F
6HR MIN TEMP:  60; 6HR MAX TEMP:  69;

S. S. MARIE    MOCLDY    63  59  87 E5        29.97F
6HR MIN TEMP:  63; 6HR MAX TEMP:  70;

$$
MIZ004>006-011>014-085-170700-
CENTRAL UPPER MICHIGAN

CITY           SKY/WX    TMP DP  RH WIND       PRES   REMARKS
MANISTIQUE     CLOUDY    67  61  81 E9        29.88F
6HR MIN TEMP:  65; 6HR MAX TEMP:  68;

SAWYER-GWINN   CLOUDY    63  60  92 SE6       29.87F
6HR MIN TEMP:  62; 6HR MAX TEMP:  68;

$$
MIZ001>003-009>011-084-170700-
WESTERN UPPER MICHIGAN

CITY           SKY/WX    TMP DP  RH WIND       PRES   REMARKS
IRON MOUNTAIN  CLOUDY    65  60  84 E6        29.82F
6HR MIN TEMP:  63; 6HR MAX TEMP:  70;

HOUGHTON       CLOUDY    60  58  92 E9        29.83F
6HR MIN TEMP:  58; 6HR MAX TEMP:  61;

COPPER HARBOR    N/A     64  59  83 S5        29.86F
6HR MIN TEMP:  63; 6HR MAX TEMP:  65;

$$

ABBREVIATIONS USED IN REMARKS
   TC - TEMPERATURE IN CELSIUS
  WCI - WIND CHILL INDEX
   HX - HEAT INDEX
  VSB - VISIBILITY




USA.gov is the U.S. government's official web portal to all federal, state and local government web resources and services.